User: anonymous   Login
Location: Unspecified
(0.0000°N, 0.0000°E)
Time: 15:50:58
(UTC+00:00)
Language:

USA 224 - Orbit

View from above orbital plane
View from above orbital plane
View from above satellite
View from above satellite

Ground track
Ground track

The orbit data is extracted from the following two-line orbital elements,

1 37348U 11002A   15244.98213017 0.00019500  00000-0  19743-3 0    01
2 37348  97.8813 355.6727 0530016 184.2375 175.7624 14.77570628    02
Epoch (UTC): 01 September 2015 23:34:16
Eccentricity: 0.0530016
inclination: 97.8813°
perigee height: 265 km
apogee height: 1009 km
right ascension of ascending node: 355.6727°
argument of perigee: 184.2375°
revolutions per day: 14.77570628
mean anomaly at epoch: 175.7624°
orbit number at epoch: 0

The dashed part of the orbit path shows where the satellite is in the earth's shadow,  

DLR